Regional Weather Roundup
Issued by NWS

Home | Current Version | Previous Version | Text Only | Print | Product List | Glossary On
Versions: 1 2 3 4 5 6 7 8 9 10 11 12 13 14 15 16 17 18 19 20 21 22 23 24 25 26 27 28 29 30 31 32 33 34 35 36 37 38 39 40 41 42 43 44 45 46 47 48 49 50
829
ASUS44 KLIX 171905
RWRLA
LOUISIANA WEATHER ROUNDUP
NATIONAL WEATHER SERVICE NEW ORLEANS LA
100 PM CST WED DEC 17 2014

NOTE: "FAIR" INDICATES FEW OR NO CLOUDS BELOW 12,000 FEET WITH NO
      SIGNIFICANT WEATHER AND/OR OBSTRUCTIONS TO VISIBILITY.
      SKY/WX - SKY CONDITION AND SIGNIFICANT WEATHER.
      TMP - AIR TEMPERATURE.    DP   - DEWPOINT TEMPERATURE.
      RH  - RELATIVE HUMIDITY.  PRES - PRESSURE.
      HX  - HEAT INDEX.         WCI  - WIND CHILL INDEX.

*  THESE STATIONS ARE NOT NWS OR FAA STATIONS AND ARE NOT UNDER
   NWS QUALITY CONTROL.

LAZ040-048-061>063-065-066-069-172000-
SOUTHEAST LOUISIANA

CITY           SKY/WX    TMP DP  RH WIND       PRES   REMARKS
N.O. AUDUBON   NOT AVBL
N.O. INTL ARPT PTSUNNY   57  43  59 NE8       30.23F
N.O. LAKEFRONT PTSUNNY   57  42  57 NE9       30.23F
N.O. DOWNTOWN* FAIR      57  41  54 E3        30.23F
SLIDELL        CLOUDY    58  38  47 CALM      30.22F
BATON ROUGE    CLOUDY    58  39  49 CALM      30.24F
BOOTHVILLE     PTSUNNY   60  48  64 N6        30.22F
BELLE CHASSE   CLOUDY    60  45  57 E9        30.21F
BOGALUSA*        N/A     58  39  49 CALM      30.24F
GALLIANO*      CLOUDY    62  46  57 MISG      30.22F
NEW ROADS*     FAIR      56  39  52 NE6       30.24F
GONZALES*      FAIR      57  41  54 E3        30.22F
HAMMOND*       NOT AVBL
HOUMA*         PTSUNNY   61  43  51 NE6       30.22F
PORT FOURCHON* CLEAR     59  46  63 NE9       30.23F

$$

LAZ041-044-053-054-172000-
SOUTHWEST LOUISIANA

CITY           SKY/WX    TMP DP  RH WIND       PRES   REMARKS
LAKE CHARLES   PTSUNNY   58  41  53 E9        30.20F
LAFAYETTE      CLOUDY    58  38  47 CALM      30.24F
PATTERSON      PTSUNNY   59  39  47 N3        30.24F
SALT POINT       N/A     60  44  55 SW6       30.23F
NEW IBERIA     PTSUNNY   59  41  51 VRB3      30.24F
CHENAULT AIRPK CLOUDY    57  41  54 E8        30.23F

$$

LAZ027-028-172000-
CENTRAL LOUISIANA

CITY           SKY/WX    TMP DP  RH WIND       PRES   REMARKS
FORT POLK      CLOUDY    53  40  61 E6        30.22F
ALEXANDRIA INT CLOUDY    54  39  57 E6        30.23F
ALEXANDRIA     MOSUNNY   55  39  54 CALM      30.24F

$$

LAZ001-002-172000-
NORTHWEST LOUISIANA

CITY           SKY/WX    TMP DP  RH WIND       PRES   REMARKS
SHREVEPORT     CLOUDY    46  36  68 E6        30.24F
BARKSDALE AFB  NOT AVBL
DTN SHREVEPORT CLOUDY    45  34  65 NE6       30.25F

$$

LAZ014-016-172000-
NORTHEAST LOUISIANA

CITY           SKY/WX    TMP DP  RH WIND       PRES   REMARKS
MONROE         CLOUDY    50  37  61 S5        30.28F
TALLULAH       MOSUNNY   51  38  60 CALM      30.25F

$$




USA.gov is the U.S. government's official web portal to all federal, state and local government web resources and services.